DB0TGO-13 Weather Reports


time (UTC)temp
F
wind
direction
speed
knots
gust
knots
rain 1hr
in
rain 24hr
in
rain mn
in
humidity
%
barometer
mb
20260502183002 75 190 4.3 0.0 0.00 0.00 0.00 28 1010.6
20260502181502 77 190 4.3 0.0 0.00 0.00 0.00 26 1010.7
20260502163002 78 200 6.1 0.0 0.00 0.00 0.00 24 1011.5
20260502161503 78 200 6.1 0.0 0.00 0.00 0.00 23 1012.0
20260502151502 79 200 7.0 0.0 0.00 0.00 0.00 24 1012.8
20260502123002 76 190 7.8 0.0 0.00 0.00 0.00 29 1015.0
20260502121502 75 190 7.8 0.0 0.00 0.00 0.00 29 1015.4
20260502114502 75 190 7.8 0.0 0.00 0.00 0.00 30 1015.8
20260502113002 75 190 7.8 0.0 0.00 0.00 0.00 30 1015.8
20260502111502 73 200 7.8 0.0 0.00 0.00 0.00 30 1016.3
20260502110002 73 200 7.8 0.0 0.00 0.00 0.00 30 1016.3
20260502104503 72 180 7.0 0.0 0.00 0.00 0.00 33 1016.4
20260502101502 72 180 7.0 0.0 0.00 0.00 0.00 34 1016.8
20260502091502 69 180 6.1 0.0 0.00 0.00 0.00 37 1017.3
20260502071502 60 170 2.6 0.0 0.00 0.00 0.00 52 1017.9
20260502070002 60 180 2.6 0.0 0.00 0.00 0.00 52 1017.9
20260502064502 56 180 2.6 0.0 0.00 0.00 0.00 58 1018.0
20260502063002 56 160 1.7 0.0 0.00 0.00 0.00 58 1018.0
20260502061502 54 160 1.7 0.0 0.00 0.00 0.00 62 1018.1
20260502060002 54 180 0.9 0.0 0.00 0.00 0.00 62 1018.1
20260502054502 51 180 0.9 0.0 0.00 0.00 0.00 70 1018.1
20260502053002 51 180 2.6 0.0 0.00 0.00 0.00 70 1018.1
20260502051502 46 170 0.9 0.0 0.00 0.00 0.00 80 1018.1
20260502050002 46 170 0.9 0.0 0.00 0.00 0.00 80 1018.1
20260502044502 46 170 0.9 0.0 0.00 0.00 0.00 83 1018.0
20260502043002 46 180 0.9 0.0 0.00 0.00 0.00 83 1018.0
20260502041502 45 120 1.7 0.0 0.00 0.00 0.00 86 1018.2
20260502040002 45 120 1.7 0.0 0.00 0.00 0.00 86 1018.2
20260502034502 46 110 0.9 0.0 0.00 0.00 0.00 83 1018.3
20260502033002 46 110 0.9 0.0 0.00 0.00 0.00 83 1018.3
20260502031502 47 110 0.9 0.0 0.00 0.00 0.00 84 1018.3
20260502030004 47 140 0.9 0.0 0.00 0.00 0.00 84 1018.3
20260501204502 59 10 0.9 0.0 0.00 0.00 0.00 51 1019.9
20260501203002 59 10 0.9 0.0 0.00 0.00 0.00 51 1019.9
20260501201502 60 10 0.9 0.0 0.00 0.00 0.00 47 1019.8
20260501200002 60 320 2.6 0.0 0.00 0.00 0.00 47 1019.8
20260501194502 66 320 2.6 0.0 0.00 0.00 0.00 39 1019.9
20260501193002 66 260 2.6 0.0 0.00 0.00 0.00 39 1019.9
20260501191502 71 330 0.0 0.0 0.00 0.00 0.00 29 1019.8
20260501190003 71 330 0.0 0.0 0.00 0.00 0.00 29 1019.8
20260501184502 66 50 3.5 0.0 0.00 0.00 0.00 42 1019.6